When you browse on this site, cookies collect data to enhance your experience and personalize the content and advertising you see.
Visit our Privacy Policy to learn more. By continuing to use the site, you agree to this use of cookies and data.
  • In Romania
  • List of Countries
  • For 7 days
  • Water Temperature
  • Satellite Maps
  • Weather Map
  • Weather Widgets
  • user-avatar
    Login

    Hourly Weather Oran

    Today, 25 March, Monday

    Time Temperature Precipitation Wind Pressure Humidity
    00:00 +14°C° 0 mm 3 mps 754 mmHg 68%
    01:00 +15°C° 0 mm 2 mps 753 mmHg 68%
    02:00 +14°C° 0 mm 2 mps 753 mmHg 68%
    03:00 +14°C° 0 mm 1 mps 753 mmHg 67%
    04:00 +14°C° 0 mm 1 mps 753 mmHg 68%
    05:00 +13°C° 0 mm 1 mps 753 mmHg 70%
    06:00 +12°C° 0 mm 0 mps 753 mmHg 74%
    07:00 +15°C° 0 mm 1 mps 753 mmHg 65%
    08:00 +19°C° 0 mm 1 mps 753 mmHg 56%
    09:00 +20°C° 0 mm 2 mps 753 mmHg 47%
    10:00 +21°C° 0 mm 2 mps 753 mmHg 43%
    11:00 +24°C° 0 mm 3 mps 753 mmHg 40%
    12:00 +25°C° 0 mm 3 mps 753 mmHg 36%
    13:00 +25°C° 0 mm 4 mps 752 mmHg 38%
    14:00 +25°C° 0 mm 5 mps 752 mmHg 40%
    15:00 +23°C° 0 mm 6 mps 751 mmHg 42%
    16:00 +22°C° 0 mm 6 mps 751 mmHg 48%
    17:00 +21°C° 0 mm 5 mps 751 mmHg 53%
    18:00 +20°C° 0 mm 5 mps 750 mmHg 59%
    19:00 +19°C° 0 mm 5 mps 751 mmHg 62%
    20:00 +18°C° 0 mm 4 mps 751 mmHg 65%
    21:00 +18°C° 0 mm 4 mps 751 mmHg 69%
    22:00 +17°C° 0 mm 4 mps 751 mmHg 71%
    23:00 +17°C° 0 mm 4 mps 751 mmHg 73%

    Tomorrow, 26 March, Tuesday

    Time Temperature Precipitation Wind Pressure Humidity
    00:00 +15°C° 0 mm 4 mps 750 mmHg 75%
    01:00 +15°C° 0 mm 4 mps 750 mmHg 76%
    02:00 +15°C° 0 mm 4 mps 749 mmHg 77%
    03:00 +14°C° 0 mm 4 mps 749 mmHg 78%
    04:00 +14°C° 0 mm 4 mps 749 mmHg 77%
    05:00 +14°C° 0 mm 4 mps 749 mmHg 77%
    06:00 +14°C° 0 mm 4 mps 749 mmHg 76%
    07:00 +16°C° 0.1 mm 5 mps 749 mmHg 70%
    08:00 +17°C° 0.1 mm 5 mps 750 mmHg 64%
    09:00 +19°C° 0.1 mm 5 mps 750 mmHg 58%
    10:00 +20°C° 0 mm 6 mps 750 mmHg 54%
    11:00 +21°C° 0 mm 7 mps 750 mmHg 51%
    12:00 +22°C° 0 mm 8 mps 750 mmHg 47%
    13:00 +22°C° 0 mm 9 mps 749 mmHg 48%
    14:00 +22°C° 0 mm 10 mps 749 mmHg 49%
    15:00 +22°C° 0 mm 12 mps 748 mmHg 49%
    16:00 +21°C° 0 mm 12 mps 748 mmHg 55%
    17:00 +18°C° 0 mm 12 mps 749 mmHg 60%
    18:00 +15°C° 0 mm 13 mps 749 mmHg 66%
    19:00 +14°C° 0 mm 13 mps 750 mmHg 64%
    20:00 +14°C° 0 mm 13 mps 750 mmHg 62%
    21:00 +13°C° 0 mm 13 mps 751 mmHg 60%
    22:00 +13°C° 0 mm 13 mps 751 mmHg 55%
    23:00 +13°C° 0 mm 12 mps 751 mmHg 51%

    Day after tomorrow, 27 March, Wednesday

    Time Temperature Precipitation Wind Pressure Humidity
    00:00 +12°C° 0 mm 11 mps 752 mmHg 47%
    01:00 +12°C° 0 mm 11 mps 751 mmHg 50%
    02:00 +12°C° 0 mm 11 mps 751 mmHg 53%
    03:00 +12°C° 0 mm 11 mps 751 mmHg 56%
    04:00 +12°C° 0.1 mm 11 mps 751 mmHg 59%
    05:00 +10°C° 0.1 mm 12 mps 751 mmHg 63%
    06:00 +10°C° 0.1 mm 12 mps 751 mmHg 66%
    07:00 +12°C° 0 mm 12 mps 751 mmHg 62%
    08:00 +12°C° 0 mm 12 mps 752 mmHg 59%
    09:00 +13°C° 0 mm 12 mps 752 mmHg 56%
    10:00 +13°C° 0.2 mm 12 mps 752 mmHg 56%
    11:00 +13°C° 0.2 mm 11 mps 753 mmHg 57%
    12:00 +13°C° 0.2 mm 11 mps 753 mmHg 58%
    13:00 +13°C° 0.7 mm 10 mps 753 mmHg 63%
    14:00 +12°C° 0.7 mm 9 mps 753 mmHg 67%
    15:00 +12°C° 0.7 mm 8 mps 753 mmHg 72%
    16:00 +12°C° 0.3 mm 8 mps 753 mmHg 72%
    17:00 +12°C° 0.3 mm 8 mps 754 mmHg 73%
    18:00 +12°C° 0.3 mm 8 mps 754 mmHg 73%
    19:00 +11°C° 0 mm 8 mps 754 mmHg 73%
    20:00 +11°C° 0 mm 8 mps 755 mmHg 73%
    21:00 +11°C° 0 mm 7 mps 755 mmHg 73%
    22:00 +11°C° 0 mm 7 mps 755 mmHg 75%
    23:00 +10°C° 0 mm 6 mps 755 mmHg 77%

    28 March, Thursday

    Time Temperature Precipitation Wind Pressure Humidity
    00:00 +10°C° 0 mm 5 mps 756 mmHg 79%
    01:00 +10°C° 0 mm 5 mps 755 mmHg 78%
    02:00 +10°C° 0 mm 5 mps 755 mmHg 78%
    03:00 +10°C° 0 mm 5 mps 755 mmHg 78%
    04:00 +10°C° 0 mm 5 mps 755 mmHg 79%
    05:00 +11°C° 0 mm 4 mps 755 mmHg 80%
    06:00 +10°C° 0 mm 4 mps 755 mmHg 80%
    07:00 +12°C° 0.1 mm 5 mps 756 mmHg 76%
    08:00 +13°C° 0.1 mm 6 mps 756 mmHg 71%
    09:00 +14°C° 0.1 mm 6 mps 757 mmHg 66%
    10:00 +15°C° 0.1 mm 7 mps 757 mmHg 62%
    11:00 +16°C° 0.1 mm 7 mps 757 mmHg 59%
    12:00 +17°C° 0.1 mm 8 mps 757 mmHg 55%
    13:00 +17°C° 0 mm 8 mps 756 mmHg 57%
    14:00 +17°C° 0 mm 8 mps 756 mmHg 59%
    15:00 +16°C° 0 mm 8 mps 756 mmHg 60%
    16:00 +16°C° 0 mm 8 mps 756 mmHg 64%
    17:00 +15°C° 0 mm 7 mps 756 mmHg 68%
    18:00 +14°C° 0 mm 7 mps 756 mmHg 73%
    19:00 +13°C° 0 mm 6 mps 757 mmHg 76%
    20:00 +13°C° 0 mm 6 mps 757 mmHg 80%
    21:00 +12°C° 0 mm 5 mps 758 mmHg 83%
    22:00 +12°C° 0 mm 4 mps 758 mmHg 84%
    23:00 +11°C° 0 mm 4 mps 758 mmHg 85%

    29 March, Friday

    Time Temperature Precipitation Wind Pressure Humidity
    00:00 +11°C° 0 mm 4 mps 757 mmHg 85%
    01:00 +11°C° 0 mm 4 mps 757 mmHg 86%
    02:00 +11°C° 0 mm 4 mps 757 mmHg 86%
    03:00 +10°C° 0 mm 4 mps 757 mmHg 87%
    04:00 +10°C° 0 mm 4 mps 757 mmHg 87%
    05:00 +10°C° 0 mm 4 mps 757 mmHg 87%
    06:00 +10°C° 0 mm 4 mps 757 mmHg 87%
    07:00 +12°C° 0 mm 4 mps 757 mmHg 80%
    08:00 +13°C° 0 mm 4 mps 758 mmHg 72%
    09:00 +15°C° 0 mm 5 mps 758 mmHg 65%
    10:00 +16°C° 0 mm 5 mps 757 mmHg 61%
    11:00 +17°C° 0 mm 5 mps 757 mmHg 57%
    12:00 +20°C° 0 mm 6 mps 757 mmHg 52%
    13:00 +20°C° 0 mm 7 mps 756 mmHg 54%
    14:00 +20°C° 0 mm 7 mps 755 mmHg 55%
    15:00 +20°C° 0 mm 8 mps 755 mmHg 56%
    16:00 +18°C° 0 mm 8 mps 755 mmHg 62%
    17:00 +17°C° 0 mm 7 mps 755 mmHg 67%
    18:00 +15°C° 0 mm 7 mps 755 mmHg 72%
    19:00 +15°C° 0 mm 6 mps 755 mmHg 75%
    20:00 +14°C° 0 mm 6 mps 756 mmHg 77%
    21:00 +14°C° 0 mm 5 mps 756 mmHg 79%
    22:00 +13°C° 0 mm 4 mps 756 mmHg 81%
    23:00 +13°C° 0 mm 4 mps 756 mmHg 83%

    30 March, Saturday

    Time Temperature Precipitation Wind Pressure Humidity
    00:00 +13°C° 0 mm 3 mps 755 mmHg 84%
    01:00 +13°C° 0 mm 3 mps 755 mmHg 82%
    02:00 +13°C° 0 mm 3 mps 755 mmHg 79%
    03:00 +14°C° 0 mm 2 mps 755 mmHg 76%
    04:00 +14°C° 0 mm 3 mps 755 mmHg 75%
    05:00 +14°C° 0 mm 3 mps 755 mmHg 74%
    06:00 +14°C° 0 mm 3 mps 754 mmHg 73%
    07:00 +17°C° 0 mm 3 mps 755 mmHg 66%
    08:00 +19°C° 0 mm 4 mps 755 mmHg 58%
    09:00 +20°C° 0 mm 4 mps 755 mmHg 50%
    10:00 +22°C° 0 mm 4 mps 754 mmHg 45%
    11:00 +25°C° 0 mm 4 mps 754 mmHg 40%
    12:00 +26°C° 0 mm 4 mps 754 mmHg 36%
    13:00 +26°C° 0.4 mm 5 mps 753 mmHg 37%
    14:00 +26°C° 0.4 mm 5 mps 753 mmHg 39%
    15:00 +25°C° 0.4 mm 5 mps 752 mmHg 41%
    16:00 +23°C° 0.2 mm 5 mps 752 mmHg 44%
    17:00 +22°C° 0.2 mm 4 mps 752 mmHg 48%
    18:00 +21°C° 0.2 mm 3 mps 752 mmHg 51%
    19:00 +20°C° 0 mm 3 mps 752 mmHg 53%
    20:00 +19°C° 0 mm 3 mps 752 mmHg 55%
    21:00 +18°C° 0 mm 2 mps 752 mmHg 56%
    22:00 +18°C° 0 mm 3 mps 752 mmHg 56%
    23:00 +18°C° 0 mm 3 mps 751 mmHg 55%
    Show more